#timestamp,LO_Frequency,Hit,StdDev 
1529391615.9,286047000.9,N
1529391635.7,286047000.1,N
1529391655.5,286047000.1,N
1529391675.4,286047001.2,N
1529391695.2,286046998.2,N
1529391715.0,286046998.8,N
1529391716.0,286046998.8,N
1529391735.8,286047000.4,N
1529391755.6,286047000.4,N
1529391775.5,286046998.1,N
1529391795.3,286047000.1,N
1529391815.1,286047001.9,N
1529391835.9,286047001.6,N
1529391855.7,286047001.4,N
1529391875.6,286047000.0,N
1529391925.4,286047000.3,E
1529391935.3,286047000.1,N
1529391955.2,286046999.8,P
1529391975.0,286046999.8,N
1529391975.9,286046999.8,N
1529391995.8,286047002.4,Y
1529392015.6,286047001.5,P
1529392035.4,286047001.8,N
1529392055.3,286047000.0,N
1529392075.1,286047000.9,N
1529392095.8,286046999.7,N
1529392115.7,286047002.8,Y
1529392135.5,286046998.4,P
1529392155.4,286047001.2,N
1529392175.2,286046999.9,N
1529392195.0,286047002.4,N
1529392196.0,286047002.4,N
1529392215.8,286047002.6,N
1529392235.6,286047000.6,N
1529392255.5,286046998.2,N
1529392275.3,286046998.2,N
1529392295.1,286047000.6,N
1529392315.9,286047001.6,N
1529392335.7,286047002.8,N
1529392355.6,286047002.0,N
1529392375.4,286047002.4,N
1529392395.2,286046999.8,N
1529392415.1,286047000.1,N
1529392416.0,286047000.1,N
1529392435.8,286047002.6,N
1529392455.6,286047002.3,N
1529392475.5,286046999.8,N
1529392495.3,286046999.9,N
1529392515.1,286047003.9,N
1529392535.9,286046999.9,N
1529392555.7,286047000.8,N
1529392575.6,286046998.4,N
1529392595.4,286046998.9,N
1529392615.2,286046998.3,N
1529392635.1,286046999.5,N
1529392636.0,286046999.5,N
1529392655.8,286046998.6,N
1529392675.6,286046998.3,N
1529392695.5,286046999.0,N
1529392715.3,286046999.6,N
1529392735.2,286046998.8,N
1529392755.9,286046999.2,N
1529392775.7,286046998.9,N
1529392795.6,286046998.6,N
1529392815.4,286046998.5,N
1529392835.2,286047002.8,N
1529392855.1,286047000.7,N
1529392856.0,286047000.7,N
1529392875.8,286047001.2,N
1529392895.7,286046999.2,N
1529392915.5,286046998.1,N
1529392935.3,286046998.8,N
1529392955.2,286046998.5,N
1529392975.0,286046998.3,N
1529392975.9,286046998.3,N
1529392995.7,286046998.3,N
1529393015.8,286046997.2,N
1529393035.6,286046999.5,N
1529393055.5,286046996.8,N
1529393075.3,286046997.2,N
1529393095.1,286046997.1,N
1529393115.9,286046997.2,N
1529393135.7,286046997.9,N
1529393155.6,286046995.1,Y
1529393175.4,286046996.5,P
1529393195.2,286046996.6,N
1529393215.1,286046999.1,N
1529393216.0,286046999.1,N
1529393235.5,286046996.7,N
1529393255.4,286046996.8,N
1529393275.2,286046997.4,N
1529393295.0,286046996.8,N
1529393295.9,286046996.8,Y
1529393315.8,286047000.3,P
1529393335.6,286047001.0,N
1529393355.5,286047001.2,N
1529393375.3,286047000.4,N
1529393395.1,286047002.1,N
1529393415.9,286047001.9,N
1529393435.7,286047002.6,N
1529393455.5,286047001.5,N
1529393475.4,286046998.2,N
1529393495.2,286046998.1,N
1529393515.1,286047000.4,N
1529393516.0,286047000.4,N
1529393535.8,286047000.5,N
1529393555.6,286047000.9,N
1529393575.5,286047000.3,N
1529393595.3,286047002.2,N
1529393615.1,286047000.9,N
1529393635.9,286047001.1,N
1529393655.7,286046998.6,N
1529393675.6,286046998.8,N
1529393695.4,286046997.2,N
1529393715.2,286046996.6,N
1529393735.1,286046998.7,N
1529393736.0,286046998.7,N
1529393755.8,286046999.3,N
1529393775.7,286046997.7,N
1529393795.5,286046996.8,N
1529393815.3,286046996.7,N
1529393835.2,286046996.9,N
1529393855.0,286046999.2,N
1529393855.9,286046999.2,N
1529393875.7,286046999.6,N
1529393895.6,286046997.3,N
1529393915.4,286046998.3,N
1529393935.3,286046998.7,N
1529393955.1,286046996.5,N
1529393975.8,286046999.1,N
1529393995.7,286046999.2,N
1529394015.5,286046999.4,N
1529394035.4,286046996.9,N
1529394055.2,286046996.5,N
1529394075.0,286046996.7,N
1529394075.9,286046996.7,N
1529394095.8,286046996.8,N
1529394115.6,286046999.6,N
1529394135.4,286046999.0,N
1529394155.3,286046999.3,N
1529394175.1,286046997.1,N
1529394195.9,286046999.4,N
1529394215.7,286046998.9,N
1529394235.5,286046996.6,N
1529394255.4,286046997.2,N
1529394275.2,286046997.6,N
1529394295.0,286046997.7,N
1529394295.9,286046997.7,N
1529394315.8,286046997.9,N
1529394335.6,286046997.2,N
1529394355.5,286046996.9,N
1529394375.3,286046999.1,N
1529394395.1,286046998.3,N
1529394415.9,286046999.4,N
1529394435.7,286046997.0,N
1529394455.5,286046996.8,Y
1529394475.4,286047001.0,P
1529394495.2,286047002.4,N
1529394515.1,286047000.5,N
1529394516.0,286047000.5,N
1529394535.8,286047001.0,N
1529394555.6,286046998.9,N
1529394575.5,286046998.3,N
1529394595.3,286046998.8,N
1529394615.2,286046998.3,N
1529394635.9,286046998.4,N
1529394655.7,286047000.2,N
1529394675.6,286047000.4,N
1529394695.4,286046999.7,N
1529394715.2,286047000.3,N
1529394735.1,286046998.1,N
1529394736.0,286046998.1,N
1529394755.8,286046998.8,N
1529394775.7,286047000.4,N
1529394795.5,286046998.2,N
1529394815.3,286047000.8,N
1529394835.2,286047000.4,N
1529394855.0,286047001.2,N
1529394855.9,286047001.2,N
1529394875.8,286046998.5,N
1529394895.6,286047000.9,N
1529394915.4,286047000.8,N
1529394935.3,286047000.5,N
1529394955.1,286047001.1,N
1529394956.0,286047001.1,N
1529394975.8,286047000.7,N
1529394995.7,286046998.3,N
1529395015.5,286047001.2,N
1529395035.3,286046998.9,N
1529395055.2,286047000.7,N
1529395075.0,286047001.2,N
1529395075.9,286047001.2,N
1529395095.8,286047000.7,N
1529395115.6,286047000.7,N
1529395135.4,286046999.0,N
1529395155.3,286046999.0,N
1529395175.1,286046999.4,N
1529395195.9,286047001.1,N
